Miscellaneous Local Product
Issued by NWS North Platte, NE

Home | Current Version | Previous Version | Text Only | Print | Product List | Glossary On
Versions: 1 2 3 4 5 6 7 8 9 10 11 12 13 14 15 16 17 18 19 20 21 22 23 24 25 26 27 28 29 30 31 32 33 34 35 36 37 38 39 40 41 42 43 44 45 46 47 48 49 50
688
AXUS43 KLBF 011610
MISLBF


WESTERN AND NORTH CENTRAL NEBRASKA HOURLY WEATHER ROUNDUP
NATIONAL WEATHER SERVICE NORTH PLATTE NE
1100 AM CDT SAT OCT 01 2016

NOTE: "FAIR" INDICATES FEW OR NO CLOUDS BELOW 12,000 FEET WITH NO
SIGNIFICANT WEATHER AND/OR OBSTRUCTIONS TO VISIBILITY.

NOTE: STATIONS NOT REPORTING VARIABLES SUCH AS SKY/WEATHER OR
PRESSURE ARE PROVIDED BY RAWS AND APRS NETWORKS AND ARE NOT UNDER
NATIONAL WEATHER SERVICE QUALITY CONTROL.

...OBSERVATIONS IN AND NEAR THE EASTERN PANHANDLE OF NEBRASKA...

CITY           SKY/WX    TMP DP  RH WIND       PRES   REMARKS
PINE RIDGE     SUNNY     67  49  52 VRB7      30.03S
CHADRON        SUNNY     66  48  52 SW6       30.03S
ALLIANCE       SUNNY     64  48  56 S5        30.06F
SIDNEY         SUNNY     68  48  48 SW3       30.10S
CRESCENT LAKE    N/A     63  48  57 S6          N/A
$$

...OBSERVATIONS IN NORTHERN NEBRASKA AND FAR SOUTHERN SOUTH DAKOTA...

CITY           SKY/WX    TMP DP  RH WIND       PRES   REMARKS
WINNER         FAIR      68  48  48 S18G28    30.05S
VALENTINE      CLOUDY    63  46  54 S9        30.06S
THEDFORD       CLOUDY    66  49  54 S9        30.10S
AINSWORTH      CLOUDY    65  49  56 S13       30.08S
O`NEILL        MOSUNNY   64  46  53 S10       30.13F
ORD            MOSUNNY   60  46  59 SE6       30.13S
BROKEN BOW     SUNNY     65  47  52 S14       30.12S
VALENTINE NWR    N/A     57  45  65 S12         N/A
BUTTE            N/A     64  49  58 SE13G20     N/A
HALSEY           N/A     66  47  51 S8          N/A
EWING            N/A     66  52  60 S5          N/A
$$

...OBSERVATIONS IN SOUTHWEST NEBRASKA AND FAR NORTHEAST COLORADO...

CITY           SKY/WX    TMP DP  RH WIND       PRES   REMARKS
HOLYOKE        FAIR      68  48  49 S6        30.11S
IMPERIAL       SUNNY     65  47  52 S12       30.11S
OGALLALA       SUNNY     66  48  52 S8        30.09F
NORTH PLATTE   PTSUNNY   65  47  52 S14       30.11F
MCCOOK         CLOUDY    62  47  57 S7        30.13R
LEXINGTON      SUNNY     67  46  47 S10G16    30.13S
STAPLETON        N/A     64  49  59 CALM        N/A
GOTHENBURG       N/A     59  46  63 SE3         N/A
CALLAWAY         N/A     62  49  63 S15         N/A
$$

...OBSERVATIONS IN CENTRAL LINCOLN COUNTY AREA...

CITY           SKY/WX    TMP DP  RH WIND       PRES   REMARKS
N.P. AIRPORT   PTSUNNY   65  47  52 S14       30.11F
N.P. DOWNTOWN    N/A     64  50  61 S3G12       N/A
N.P. SOUTHEAST   N/A     63  49  61 S8          N/A
N.P. HILLCREST   N/A     64  50  60 S8          N/A
$$

...SOME OBSERVATIONS FROM AROUND THE REGION...

CITY           SKY/WX    TMP DP  RH WIND       PRES   REMARKS
DENVER         MOSUNNY   68  42  38 S5        30.16S
LARAMIE        SUNNY     57  42  57 SW7       30.25S
CHEYENNE       SUNNY     70  42  36 NW8       30.17F
SCOTTSBLUFF    SUNNY     60  47  61 CALM      30.09S
RAPID CITY     SUNNY     73  48  41 NE5       30.01S
BISMARCK       SUNNY     63  48  58 SE12      30.03S
PIERRE         CLOUDY    62  46  55 SE15      30.01S
SIOUX FALLS    CLOUDY    63  56  78 E6        30.15F
OMAHA          CLOUDY    63  54  72 N7        30.14S
GRAND ISLAND   MOSUNNY   64  50  60 E8        30.15S
KANSAS CITY    CLOUDY    62  55  77 N3        30.14R
WICHITA        PTSUNNY   67  53  61 S5        30.13S
OKLAHOMA CITY  MOSUNNY   70  52  52 S8        30.12F
DALLAS         PTSUNNY   77  52  41 VRB7      30.10F
AMARILLO       SUNNY     72  55  55 S20       30.12S
DODGE CITY     SUNNY     71  49  45 S15       30.10F
HAYS           CLOUDY    70  45  40 SE12      30.12S
GOODLAND       SUNNY     62  48  60 SE7       30.12S
$$




USA.gov is the U.S. government's official web portal to all federal, state and local government web resources and services.